Hourly Weather Roundup
Issued by NWS

Home | Current Version | Previous Version | Text Only | Print | Product List | Glossary On
Versions: 1 2 3 4 5 6 7 8 9 10 11 12 13 14 15 16 17 18 19 20 21 22 23 24 25 26 27 28 29 30 31 32 33 34 35 36 37 38 39 40 41 42 43 44 45 46 47 48 49 50
000
NZUS43 KILX 011510
HWRCRS

CRS HOURLY WEATHER ROUNDUP
NATIONAL WEATHER SERVICE, LINCOLN IL
1000 AM CDT SAT OCT 01 2016


CITY           SKY/WX    TMP DP  RH WIND       PRES   REMARKS
CHAMPAIGN      LGT RAIN  60  58  92 N5        30.03R FOG
LAWRENCEVILLE  CLOUDY    59  57  93 S6        30.03S
PEORIA         CLOUDY    63  61  93 NW5       30.04S
SPRINGFIELD    CLOUDY    64  61  90 NW3       30.04S FOG
$$


CITY           SKY/WX    TMP DP  RH WIND       PRES   REMARKS
BLOOMINGTON    CLOUDY    61  56  83 NE8       30.04S
DECATUR        MOSUNNY   65  58  78 NW6       30.03S
EFFINGHAM      CLOUDY    63  62  98 W5        30.04S
FLORA          CLOUDY    65  61  85 CALM      30.03R
GALESBURG      DRIZZLE   61  60  98 NW5       30.05S
JACKSONVILLE   CLOUDY    62  60  94 NW6       30.05S FOG
LACON          CLOUDY    62  59  87 N5        30.04R
LINCOLN        CLOUDY    62  59  88 CALM      30.03F
LITCHFIELD     DRIZZLE   61  59  92 NW12G20   30.05R

CITY           SKY/WX    TMP DP  RH WIND       PRES   REMARKS
MACOMB         DRIZZLE   60  60  99 NW7       30.08S
MATTOON        CLOUDY    63  58  83 NW6       30.01F
MOLINE         CLOUDY    62  59  90 N5        30.05S
OLNEY          CLOUDY    61  61 100 CALM      30.03S
PARIS          CLOUDY    57  57 100 CALM      30.04R FOG
PONTIAC        CLOUDY    60  60 100 NW3       30.05R FOG
QUINCY         CLOUDY    63  58  83 NW10      30.06F
RANTOUL        CLOUDY    61  59  95 NW5       30.02S FOG
ROBINSON       CLOUDY    58  57  97 CALM      30.04R FOG
TAYLORVILLE    CLOUDY    64  60  90 N3        30.04S
TERRE HAUTE    CLOUDY    57  54  89 SE5       30.03R
$$


CITY           SKY/WX    TMP DP  RH WIND       PRES   REMARKS
BURLINGTON     CLOUDY    60  60 100 N7        30.06S
CHICAGO        LGT RAIN  61  59  93 NE9       30.02S FOG
DES MOINES     CLOUDY    62  58  86 N6        30.12S
EVANSVILLE     PTSUNNY   64  60  87 S7        30.04S FOG
INDIANAPOLIS   PTSUNNY   56  54  93 CALM      30.04R FOG
KANSAS CITY    CLOUDY    60  55  83 N3        30.13S
MILWAUKEE      CLOUDY    60  57  89 NE8       30.07R
ST LOUIS       CLOUDY    66  60  81 W9        30.06S
$$





USA.gov is the U.S. government's official web portal to all federal, state and local government web resources and services.